Regional Weather Roundup
Issued by NWS

Home | Current Version | Previous Version | Text Only | Print | Product List | Glossary On
Versions: 1 2 3 4 5 6 7 8 9 10 11 12 13 14 15 16 17 18 19 20 21 22 23 24 25 26 27 28 29 30 31 32 33 34 35 36 37 38 39 40 41 42 43 44 45 46 47 48 49 50
000
ASUS44 KBMX 040310
RWRAL

ALABAMA REGIONAL WEATHER ROUNDUP
NATIONAL WEATHER SERVICE BIRMINGHAM AL
1000 PM CDT SUN MAY 03 2015

NOTE: "FAIR" INDICATES FEW OR NO CLOUDS BELOW 12,000 FEET
WITH NO SIGNIFICANT WEATHER AND/OR OBSTRUCTIONS TO VISIBILITY.

THE REMARK "TC" DENOTES TEMPERATURE IN DEGREES CELSIUS.

ALZ001>011-014-016>018-020-040400-
NORTH ALABAMA

CITY           SKY/WX    TMP DP  RH WIND       PRES   REMARKS
MUSCLE SHOALS  PTCLDY    61  53  75 SE3       30.14R
HUNTSVILLE     PTCLDY    64  54  69 CALM      30.15R
DECATUR        CLEAR     61  54  77 SE3       30.15R
HALEYVILLE       N/A     59  55  86 MISG      30.18R
GADSDEN        CLEAR    N/A N/A N/A CALM      30.15R
$$

ALZ012-013-022-023-030>036-040>044-040400-
WEST CENTRAL ALABAMA

CITY           SKY/WX    TMP DP  RH WIND       PRES   REMARKS
TUSCALOOSA     CLEAR     63  56  78 CALM      30.14R
$$

ALZ015-024>027-033>036-040>044-040400-
CENTRAL ALABAMA

CITY           SKY/WX    TMP DP  RH WIND       PRES   REMARKS
BIRMINGHAM     PTCLDY    65  54  67 CALM      30.18R
MONTGOMERY     CLEAR     68  54  60 CALM      30.15R
SHELBY CO ARPT CLEAR    N/A N/A N/A CALM      30.16R
MAXWELL AFB    PTCLDY    64  60  88 NW2       30.14R
GREENVILLE     MOCLDY    63  57  81 CALM      30.16R
$$

ALZ019-021-028-029-037-038-045>048-040400-
EAST CENTRAL ALABAMA

CITY           SKY/WX    TMP DP  RH WIND       PRES   REMARKS
ANNISTON       CLEAR     60  54  80 CALM      30.17R
ALEXANDER CITY CLEAR     58  53  81 CALM      30.18R
AUBURN         PTCLDY    63  48  59 CALM      30.19R
$$

ALZ051>064-040400-
SOUTHWEST ALABAMA

CITY           SKY/WX    TMP DP  RH WIND       PRES   REMARKS
MOBILE         CLEAR     63  60  90 CALM      30.16R
BROOKLEY FIELD CLEAR     69  64  84 SE5       30.16R
EVERGREEN      CLEAR     66  56  70 S3        30.16R
$$

ALZ049-050-065>069-040400-
SOUTHEAST ALABAMA

CITY           SKY/WX    TMP DP  RH WIND       PRES   REMARKS
DOTHAN         PTCLDY    64  58  80 CALM      30.20R
OZARK          MOCLDY    69  57  67 S7        30.17R
TROY           CLEAR     61  56  83 CALM      30.17R
EUFAULA        FAIR      58  54  86 CALM      30.16R
$$



USA.gov is the U.S. government's official web portal to all federal, state and local government web resources and services.